Location: Gandikunta
(16.3784°N, 80.8378°E)
Time: 05:38:25
(UTC+00:00)

Cosmos 968 Rocket - Pass Details

Date: 19 May 2025
Orbit: 736 x 766 km, 74.0° (Epoch: 13 June)

Event Time Altitude Azimuth Distance (km) Brightness Sun altitude
Rises 23:25:17 0° 190° (S) 3,153 6.4 -9.6°
Reaches altitude 10° 23:27:37 10° 188° (S) 2,233 5.6 -9.1°
Maximum altitude 23:32:40 78° 102° (ESE) 757 3.6 -8.0°
Drops below altitude 10° 23:37:45 10° 17° (NNE) 2,250 6.5 -6.9°
Sets 23:40:07 0° 16° (NNE) 3,179 7.3 -6.4°
